Flag for United Kingdom Weather past 2 weeks in Stornoway, Scotland, United Kingdom

Now
34 °F

Chilly.


Feels Like: 26 °F
Forecast: 36 / 42 °F
Wind: 9 mph from Southwest

Location: Stornoway

Current Time: Dec 27, 2014 at 12:27:11 AM

Latest Report: Dec 26, 2014 at 11:50 PM


Visibility: N/A

Pressure: 29.86 "Hg

Humidity: 93%

Dew point: 32 °F

Location of StornowayLocation

Historic Weather in Stornoway — Graph

°F

Stornoway temperature yesterday

Maximum temperature yesterday: 37 °F (at 2:50 PM)
Minimum temperature yesterday: 30 °F (at 5:50 AM)
Average temperature yesterday: 34 °F

Past Weeks' High & Low Weather Summary

 TemperatureHumidityPressure
High50 °F (Dec 17, 12:50 AM)100% (Dec 13, 6:50 AM)30.39 "Hg (Dec 13, 6:50 AM)
Low30 °F (Dec 26, 5:50 AM)66% (Dec 20, 8:20 AM)29.00 "Hg (Dec 14, 6:50 AM)
Average40 °F84%29.56 "Hg
* Reported Dec 11 11:20 PM — Dec 26 11:20 PM, Stornoway, Weather by CustomWeather, © 2014

Note: Actual official high and low records may vary slightly from our data, if they occured in-between our weather recording intervals... More about our weather records

Advertising

Stornoway weather history for previous 24 hours

 ConditionsComfort  
Time TempWeatherWind HumidityBarometerVisibility
11:20 PM
Dec 26
34 °FChilly.8 mph87%29.86 "HgN/A
10:50 PM36 °FChilly.9 mph87%29.86 "HgN/A
10:20 PM36 °FChilly.9 mph87%29.89 "HgN/A
9:50 PM36 °FPassing clouds.9 mph87%29.89 "HgN/A
9:20 PM36 °FSprinkles. Passing clouds.7 mph87%29.92 "HgN/A
8:50 PM36 °FPassing clouds.10 mph87%29.92 "HgN/A
8:20 PM34 °FPassing clouds.10 mph93%29.92 "HgN/A
7:50 PM32 °FChilly.5 mph87%29.92 "HgN/A
7:20 PM36 °FPassing clouds.7 mph93%29.95 "HgN/A
6:50 PM36 °FPassing clouds.7 mph93%29.95 "HgN/A
6:20 PM36 °FPassing clouds.7 mph93%29.95 "HgN/A
5:50 PM36 °FPassing clouds.3 mph93%29.98 "HgN/A
5:20 PM36 °FPassing clouds.6 mph93%29.98 "HgN/A
4:50 PM36 °FPassing clouds.2 mph93%29.98 "HgN/A
4:20 PM36 °FScattered showers. Passing clouds.No wind93%30.01 "HgN/A
3:20 PM36 °FScattered showers. Scattered clouds.6 mph87%30.04 "HgN/A
2:50 PM37 °FScattered showers. Passing clouds.10 mph87%30.04 "HgN/A
2:20 PM36 °FScattered showers. Passing clouds.3 mph87%30.04 "HgN/A
1:50 PM36 °FScattered showers. Passing clouds.5 mph87%30.07 "HgN/A
1:20 PM36 °FScattered showers. Passing clouds.5 mph87%30.07 "HgN/A
12:50 PM36 °FScattered showers. Passing clouds.5 mph87%30.09 "HgN/A
12:20 PM34 °FScattered showers. Passing clouds.3 mph93%30.09 "HgN/A
11:50 AM36 °FScattered showers. Passing clouds.No wind93%30.12 "HgN/A
11:20 AM34 °FScattered showers. Passing clouds.6 mph93%30.12 "HgN/A
10:50 AM36 °FScattered showers. Passing clouds.5 mph87%30.12 "HgN/A
10:20 AM34 °FChilly.2 mph87%30.15 "HgN/A
9:50 AM30 °FChilly.3 mph93%30.15 "Hg6 mi
9:20 AM30 °FChilly.No wind86%30.18 "HgN/A
8:50 AM32 °FChilly.No wind87%30.18 "HgN/A
8:20 AM30 °FChilly.No wind93%30.18 "HgN/A
7:50 AM32 °FChilly.3 mph87%30.21 "HgN/A
7:20 AM30 °FChilly.2 mph93%30.21 "HgN/A
6:50 AM32 °FChilly.3 mph87%30.21 "HgN/A
6:20 AM34 °FChilly.No wind87%30.24 "HgN/A
5:50 AM30 °FChilly.3 mph93%30.24 "HgN/A
5:20 AM32 °FChilly.5 mph87%30.27 "HgN/A
4:50 AM32 °FChilly.3 mph87%30.27 "HgN/A
4:20 AM32 °FChilly.5 mph87%30.27 "HgN/A
3:50 AM34 °FChilly.7 mph87%30.30 "HgN/A
3:20 AM34 °FPassing clouds.7 mph87%30.30 "HgN/A
2:20 AM34 °FPassing clouds.5 mph87%30.33 "HgN/A
1:50 AM36 °FPassing clouds.5 mph87%30.33 "HgN/A
1:20 AM36 °FLight freezing rain. Passing clouds.10 mph87%30.33 "Hg5 mi
12:50 AM34 °FPassing clouds.5 mph93%30.33 "HgN/A
12:20 AM36 °FSprinkles. Passing clouds.5 mph87%30.36 "Hg5 mi
Weather by CustomWeather, © 2014

See weather overviewHow to use our weather pages